CZ-6A DEB

Satellite information

Favourite Embed

Satellite Type and Status

DEBRISIN ORBIT

Key statistics

Satellite CZ-6A DEB at a glance.

Uptime

969

Days in orbit

Revolutions

≈ 14.3

Per day

Orbit

SSO

Sun Synchronous Orbit

Inclination

99.0

Latest

Satellite identification and parameters

Extended collection of information and parameters for CZ-6A DEB.

Object identification

Identified? True

Debris? True

Object name: CZ-6A DEB

International designator: 2022-151GG

Object number (NORAD): 54456

Object ID (CCSDS): 54456

Country: PEOPLES REPUBLIC OF CHINA (PRC)

Current information (Y/N): Y

RCS size: MEDIUM

Orbital parameters

Period: 100.643 minutes

Inclination: 99.0171 deg

SMA: 7167.188 km

Apoapsis: 872.137 km

Periapsis: 705.97 km

RAAN: 245.2934 deg

Eccentricy: 0.0115922

Argument of periapsis: 60.9879 deg

Mean anomaly: 300.2861 deg

Mean motion: 14.30802025 rev/day

Mean motion (dot): 0.00002727 rev/day2

B* drag term: 0.00098365 1/REarth

Two-line elements (TLE)

Creation date: July 6, 2025, 11:06 p.m.

Reference frame: TEME

Reference center: EARTH

Epoch: July 6, 2025, 5:15 p.m. UTC

TLE line 0: 0 CZ-6A DEB

TLE line 1: 1 54456U 22151GG 25187.71888459 .00002727 00000-0 98365-3 0 9990

TLE line 2: 2 54456 99.0171 245.2934 0115922 60.9879 300.2861 14.30802025137748

Live tracking on map

Real-time ground track for satellite CZ-6A DEB.

In-orbit conjunctions

A list of the most updated potential collisions computed for object CZ-6A DEB.

Target Orbit TCA Probability of collision Miss distance Type
COSMOS 1275 DEB LEO 2025-06-09 19:24:41 0.0002239263 133.0 (m) DEBRIS
COSMOS 2251 DEB LEO 2025-05-05 12:16:56 0.0004757788 48.0 (m) DEBRIS
COSMOS 1275 DEB LEO 2024-12-11 13:57:11 0.0001277157 43.0 (m) DEBRIS

Associated space launch

Chinese satellite reported for atmospheric/ocean/environmental/spatial parameter research purposes, details TBD.

CZ-6A DEB was lifted into orbit during the mission ‘Long March 6A | Yunhai 3’, on board a Long March 6A space rocket.

The launch took place on Nov. 11, 2022, 10:52 p.m. from Launch Complex 9A.

For more information about the launch, click the button.

Launch to space Long March 6A | Yunhai 3
Long March 6A | Yunhai 3

Agency: N/A

Status: Launch Successful

Launch date: Nov. 11, 2022, 10:52 p.m. UTC

Rocket: Long March 6A

Launch pad: Launch Complex 9A

Location: Taiyuan Satellite Launch Center, People's Republic of China

...

Latest news about this satellite

There are no fresh news available about this satellite. Check back as we update our databases every day.


Newsletter sign-up

Weekly statistics, charts and insights to help you stay on top of the space industry.